User: anonymous   Login
Location: Fort Wayne
(41.1310°N, 85.1290°W)
Time: 15:58:30
(UTC-04:00)
Language:

CZ-2C R/B - Orbit

View from above orbital plane
View from above orbital plane
View from above satellite
View from above satellite

Ground track
Ground track

The orbit data is extracted from the following two-line orbital elements,

1 36089U 09061B   17266.10324191  .00000065  00000-0  27317-4 0  9990
2 36089  98.0567 263.5781 0083319 103.9092 298.4033 14.49683798415898
Epoch (UTC): 23 September 2017 02:28:40
Eccentricity: 0.0083319
inclination: 98.0567°
perigee height: 667 km
apogee height: 786 km
right ascension of ascending node: 263.5781°
argument of perigee: 103.9092°
revolutions per day: 14.49683798
mean anomaly at epoch: 298.4033°
orbit number at epoch: 41589

The dashed part of the orbit path shows where the satellite is in the earth's shadow,  

DLR